Regional Weather Roundup
Issued by NWS

Home | Current Version | Previous Version | Text Only | Print | Product List | Glossary On
Versions: 1 2 3 4 5 6 7 8 9 10 11 12 13 14 15 16 17 18 19 20 21 22 23 24 25 26 27 28 29 30 31 32 33 34 35 36 37 38 39 40 41 42 43 44 45 46 47 48 49 50
000
ASUS44 KLUB 222310
RWRTX
WEST TEXAS WEATHER ROUNDUP
NATIONAL WEATHER SERVICE LUBBOCK TX
500 PM CST MON DEC 22 2014

NOTE: "FAIR" INDICATES FEW OR NO CLOUDS BELOW 12,000 FEET WITH NO
SIGNIFICANT WEATHER AND/OR OBSTRUCTIONS TO VISIBILITY.

TXZ004-006>008-010-012-014-016-OKZ002-230000-
TEXAS PANHANDLE/OKLAHOMA PANHANDLE

CITY           SKY/WX    TMP DP  RH WIND       PRES   REMARKS
AMARILLO       CLOUDY    45  25  45 N13       29.73R
BORGER         CLOUDY    49  20  31 W8G18     29.70S
CANADIAN       CLOUDY    50  31  49 W6        29.69R
DALHART        CLOUDY    37  32  82 NW6       29.75R WCI  32
DUMAS          CLOUDY    38  31  75 NW7       29.73S WCI  32
GUYMON         CLOUDY    46  27  47 W6        29.67R
HEREFORD       CLOUDY    47  26  43 NE14G22   29.72R
PAMPA          CLOUDY    46  25  43 NW8       29.71S
PERRYTON       CLOUDY    46  30  53 W7        29.69R
$$

TXZ026-029-035-045-048-230000-
SOUTHERN PANHANDLE/SOUTH PLAINS/ROLLING PLAINS

CITY           SKY/WX    TMP DP  RH WIND       PRES   REMARKS
CHILDRESS      CLOUDY    57  29  34 N10       29.66F
SEMINOLE       MOCLDY    57  32  39 E10       29.65S
LUBBOCK        MOCLDY    51  28  41 NE13      29.68S
PLAINVIEW      CLOUDY    50  29  44 NE7       29.69R
SNYDER         CLOUDY    56  35  45 N7        29.68R
$$

TXZ052-054-060>062-072-078-127-140-154-169-230000-
PERMIAN BASIN/CONCHO VALLEY/BIG COUNTRY/EDWARDS PLATEAU

CITY           SKY/WX    TMP DP  RH WIND       PRES   REMARKS
ABILENE        CLOUDY    60  35  39 N12       29.67R
BIG SPRING     CLOUDY    61  33  34 N7        29.68R
BRADY          CLEAR     66  37  34 N7        29.63S
BROWNWOOD      CLOUDY    61  39  44 NW3       29.65R
JUNCTION       MOCLDY    68  38  33 N7        29.62S
MIDLAND        CLOUDY    62  35  36 E3        29.63F
ODESSA         CLOUDY    63  32  31 E5        29.64F
SAN ANGELO     CLOUDY    65  35  33 N9        29.63S
SONORA         PTCLDY    70  34  26 N7        29.67F
SWEETWATER     CLOUDY    58  34  40 N5        29.69S
WINK           CLEAR     70  30  22 SW12      29.60F
$$

TXZ055-058-074-075-080-082-230000-
FAR WEST/SOUTHWEST MOUNTAINS/TRANS PECOS

CITY           SKY/WX    TMP DP  RH WIND       PRES   REMARKS
ALPINE         SUNNY     65  30  26 W16       29.77F
DRYDEN           N/A     78  29  16 SW21G26   29.60F
EL PASO        MOSUNNY   66  32  28 SW15G28   29.70F
FORT STOCKTON  PTCLDY    71  29  21 NW7       29.64F
MARFA          SUNNY     63  28  27 SW14      29.77F
PECOS          CLEAR     70  32  25 SW15      29.62F
PRESIDIO       FAIR      73  31  21 S7        29.70F
$$

TXZ014-016-019-021>030-083-230000
TEXAS TECH WEST TEXAS MESONET/TEXAS PANHANDLE/NORTHERN SOUTH PLAINS

CITY           SKY/WX    TMP DP  RH WIND       PRES   REMARKS
ABERNATHY 5ENE   N/A     49  27  41 N9        29.70S
AMARILLO 9NNE    N/A     44  25  46 N12       29.75R
AMARILLO 7SSE    N/A     44  25  46 N13       29.75R
AMHERST 1NE      N/A     49  26  41 NE12      29.68F
BOOTLEG 11WNW    N/A     42  21  42 NE17      29.73R
CANADIAN 6E      N/A     48  30  49 NW7       29.68R
CAPROCK CYN SP   N/A     52  23  32 N9        29.69S
CHILDRESS 2NNE   N/A     55  27  34 NW10      29.65F
CLARENDON 2WSW   N/A     50  21  32 NW10      29.70R
CLAUDE 12SW      N/A     45  24  43 N10       29.71S
DIMMITT 2NE      N/A     46  23  40 NE13      29.69F
FLOYDADA 2NNE    N/A     49  26  41 N5        29.69S
FRIONA 2NE       N/A     45  23  41 NE16      29.71S
GOODLETT 3W      N/A     55  29  37 NW8       29.65F
HART 3N          N/A     45  31  57 NE5       29.70R
HEREFORD 2NW     N/A     45  22  39 N15       29.72R
MCLEAN 1E        N/A     49  25  38 NW12      29.68R
MEMPHIS 1NE      N/A     55  26  33 NW7       29.68S
MULESHOE 2SSW    N/A     48  29  46 NE9       29.67F
OLTON 6S         N/A     48  27  43 NE8       29.70R
PALO DURO SP     N/A     46  23  41 N8        29.74R
PAMPA 2E         N/A     46  24  41 NW10      29.70R
PLAINVIEW 1S     N/A     48  29  47 N6        29.69S
SILVERTON 7ESE   N/A     49  24  36 N12       29.69S
TULIA 2ENE       N/A     47  29  50 NE5       29.70R
TURKEY 2WSW      N/A     53  24  31 N12       29.68S
UMBARGER 3NNE    N/A     43  25  49 N18       29.75R
$$

TXZ033>036-039>041-045>048-230000
TEXAS TECH WEST TEXAS MESONET/SOUTH PLAINS

CITY           SKY/WX    TMP DP  RH WIND       PRES   REMARKS
AIKEN 3WSW       N/A     48  29  47 N7        29.71R
ANTON 6SSW       N/A     51  30  44 NE12      29.68S
BROWNFIELD 2S    N/A     52  31  44 E6        29.67R
DENVR CTY 7WNW   N/A     53  28  38 NE8       29.65R
GAIL 2ESE        N/A     56  34  42 N7        29.66R
LAMESA 2SE       N/A     56  32  40 N8        29.66S
LEVELLAND 4S     N/A     53  27  37 NE13      29.66F
LUBBOCK 3WNW     N/A     51  27  39 NE10      29.69R
MORTON 1ENE      N/A     50  29  43 NE10      29.66F
ODONNELL 1N      N/A     54  30  40 NE6       29.66S
PLAINS 3N        N/A     52  29  40 NE9       29.65S
RALLS 1SE        N/A     51  27  39 N7        29.70S
REESE CENTER     N/A     50  27  40 NE13      29.68R
SEAGRAVES 1SW    N/A     54  31  41 NE7       29.65F
SEMINOLE 2NNE    N/A     56  31  39 NE10      29.65S
SLATON 2NE       N/A     52  27  38 N9        29.68S
SNYDER 3E        N/A     55  36  48 N7        29.67R
SUNDOWN 8SW      N/A     53  30  41 NE9       29.66R
TAHOKA 3NNE      N/A     54  30  40 NE9       29.65F
WOLFFORTH 6SSW   N/A     53  29  39 NE13      29.67S
$$

TXZ031-032-036>038-042>044-230000-
TEXAS TECH WEST TEXAS MESONET/ROLLING PLAINS

CITY           SKY/WX    TMP DP  RH WIND       PRES   REMARKS
ASPERMONT 3NE    N/A     58  33  37 N8        29.69R
FLUVANNA 3WNW    N/A     55  33  43 NE7       29.66F
GRAHAM 5SSW      N/A     55  32  41 NE6       29.67S
GUTHRIE 10WSW    N/A     55  28  36 N5        29.68R
HASKELL 1NW      N/A     58  31  36 N10       29.67R
JAYTON 1SSE      N/A     57  30  36 N9        29.68R
KNOX CITY 3NW    N/A     57  30  35 NW2       29.68R
LK A HENRY 1NW   N/A     57  35  43 E2        29.67S
NORTHFIELD 1S    N/A     55  29  36 NW7       29.67F
ODELL 4ENE       N/A     56  32  40 NW7       29.65S
PADUCAH 10SW     N/A     55  26  33 NW7       29.68R
POST 1NE         N/A     56  29  36 NE10      29.67S
RRING SPRGS 3N   N/A     52  28  39 N7        29.67F
SEYMOUR 3NW      N/A     55  35  47 N6        29.66R
SPUR 1W          N/A     54  27  34 NE7       29.67S
WHITE RVR 6NE    N/A     53  29  40 N9        29.68S
$$

TXZ052-054-060>062-072-078-127-140-154-169-230000-
TEXAS TECH WEST TEXAS MESONET/PERMIAN BASIN/
CONCHO VALLEY/BIG COUNTRY/EDWARDS PLATEAU

CITY           SKY/WX    TMP DP  RH WIND       PRES   REMARKS
COYANOSA 2N      N/A     72  31  22 W9        29.62F
JUNCTION 1SSW    N/A     68  39  33 N2        29.64S
MERTZON 3NNE     N/A     64  35  34 N5        29.64F
SAN ANGELO 7NW   N/A     62  32  32 N5        29.64F
STRLNG CT 4WSW   N/A     59  34  39 NE5       29.65F
ST LAWRNCE 5SW   N/A     61  32  34 NE5       29.65R
SWEETWATR 11SW   N/A     56  36  45 NE6       29.67S
WALL 1E          N/A     64  33  32 N8        29.65S
$$

TXZ055-058-074-075-080-082-230000-
TEXAS TECH WEST TEXAS MESONET/FAR WEST/SOUTHWEST MOUNTAINS/TRANS PECOS

CITY           SKY/WX    TMP DP  RH WIND       PRES   REMARKS
PRSMN GAP BBNP   N/A     74  32  21 SW13      29.66F
$$



USA.gov is the U.S. government's official web portal to all federal, state and local government web resources and services.